TimePDT,TemperatureF,Dew PointF,Humidity,Sea Level PressureIn,VisibilityMPH,Wind Direction,Wind SpeedMPH,Gust SpeedMPH,PrecipitationIn,Events,Conditions,WindDirDegrees,DateUTC
12:00 AM,71.6,59.0,64,30.01,40.0,ENE,9.2,-,N/A,,Partly Cloudy,60,2013-06-30 07:00:00
1:00 AM,68.0,59.0,73,30.02,40.0,Calm,Calm,-,N/A,,Partly Cloudy,0,2013-06-30 08:00:00
2:00 AM,66.2,59.0,78,30.03,40.0,Variable,2.3,-,N/A,,Partly Cloudy,0,2013-06-30 09:00:00
3:00 AM,66.2,57.2,73,30.04,40.0,East,8.1,-,N/A,,Scattered Clouds,80,2013-06-30 10:00:00
4:00 AM,64.4,57.2,77,30.05,40.0,NE,5.8,-,N/A,,Partly Cloudy,50,2013-06-30 11:00:00
5:00 AM,62,57,80,30.07,37,SSE,1.2,,,,Scattered Clouds,150,2013-06-30 12:00:00
5:00 AM,62.6,57.2,82,30.07,40.0,Calm,Calm,-,N/A,,Scattered Clouds,0,2013-06-30 12:00:00
6:00 AM,62.6,57.2,82,30.08,40.0,Calm,Calm,-,N/A,,Partly Cloudy,0,2013-06-30 13:00:00
7:00 AM,66.2,55.4,68,30.08,40.0,Calm,Calm,-,N/A,,Clear,0,2013-06-30 14:00:00
8:00 AM,68.0,57.2,68,30.09,40.0,South,2.3,-,N/A,,Clear,170,2013-06-30 15:00:00
9:00 AM,71.6,55.4,57,30.08,40.0,East,4.6,-,N/A,,Clear,80,2013-06-30 16:00:00
10:00 AM,75.2,55.4,50,30.06,40.0,ESE,4.6,-,N/A,,Partly Cloudy,120,2013-06-30 17:00:00
11:00 AM,78,59,41,30.05,37,ESE,5.8,,,,,110,2013-06-30 18:00:00
11:00 AM,78.8,59.0,51,30.04,40.0,ESE,5.8,-,N/A,,Partly Cloudy,110,2013-06-30 18:00:00
12:00 PM,80.6,59.0,48,30.02,40.0,ESE,6.9,-,N/A,,Partly Cloudy,110,2013-06-30 19:00:00
1:00 PM,86.0,59.0,40,30.00,40.0,ESE,6.9,-,N/A,,Partly Cloudy,110,2013-06-30 20:00:00
2:00 PM,91.4,50.0,24,29.97,40.0,ESE,10.4,-,N/A,,Partly Cloudy,110,2013-06-30 21:00:00
3:00 PM,93.2,53.6,26,29.96,40.0,East,9.2,-,N/A,,Partly Cloudy,100,2013-06-30 22:00:00
4:00 PM,93.2,53.6,26,29.94,40.0,ENE,6.9,-,N/A,,Partly Cloudy,60,2013-06-30 23:00:00
5:00 PM,94,52,15,29.93,37,East,8.1,,,,Scattered Clouds,100,2013-07-01 00:00:00
5:00 PM,95.0,51.8,23,29.92,40.0,East,10.4,-,N/A,,Partly Cloudy,100,2013-07-01 00:00:00
6:00 PM,93.2,51.8,24,29.91,40.0,ESE,11.5,-,N/A,,Partly Cloudy,110,2013-07-01 01:00:00
7:00 PM,89.6,55.4,31,29.91,40.0,East,11.5,-,N/A,,Partly Cloudy,100,2013-07-01 02:00:00
8:00 PM,87.8,57.2,35,29.91,40.0,East,8.1,-,N/A,,Partly Cloudy,100,2013-07-01 03:00:00
9:00 PM,86.0,57.2,37,29.91,40.0,ENE,9.2,-,N/A,,Clear,70,2013-07-01 04:00:00
10:00 PM,78.8,55.4,44,29.94,40.0,West,2.3,-,N/A,,Clear,270,2013-07-01 05:00:00
11:00 PM,74,56,43,29.95,37,SSW,1.2,,,,,200,2013-07-01 06:00:00
11:00 PM,75.2,55.4,50,29.95,40.0,Calm,Calm,-,N/A,,Clear,0,2013-07-01 06:00:00